www.pogodaiklimat.ru

Погода и климат >> Архив погоды >> Албания >> Тирана


ПОГОДА в Тиране

  • Прогноз погоды в Тиране
  • Монитор погоды в Тиране

АРХИВ ПОГОДЫ в Тиране

Время (UTC), дата Ветер
(напр.,м/с)
 
Видим.   Явления Облачность Т
(С)
Тd
(С)
f
(%)
Тe
(С)
Тes
(С)
Комфортность P
(гПа)
Po
(гПа)
Тmin
(С)
Tmax
(С)
R
(мм)
R24
(мм)
S
(см)
22 9.09 ЮВ 1 6000 м н/о +18.6 +16.5 88 +21 +21 комфорт 1015.2 1010.7
23 9.09 Ю 1 18 км н/о +18.4 +16.4 88 +20 +20 1015.3 1010.8
00 10.09 ЮВ 1 8000 м н/о +17.5 +15.8 90 +19 +19 1015.2 1010.7
01 10.09 ЮВ 1 13 км н/о +17.5 +15.7 89 +19 +19 1015.0 1010.5
02 10.09 ЮВ 2 11 км н/о +17.6 +16.2 91 +18 +18 1014.8 1010.3
03 10.09 Ю 1 14 км н/о +17.1 +15.5 90 +18 +18 1014.7 1010.2
04 10.09 ЮВ 2 12 км н/о +17.1 +15.5 90 +17 +17 1014.7 1010.2
05 10.09 штиль 0 15 км н/о +17.2 +15.2 88 +17 +17 1014.9 1010.4
06 10.09 В 1 19 км н/о +20.4 +15.6 74 +24 +24 комфорт 1014.8 1010.4 +16.4 +21.7
07 10.09 штиль 0 20 км н/о +23.3 +16.3 65 +28 +28 душно 1014.9 1010.5
08 10.09 СВ 1 16 км н/о +24.7 +15.3 56 +28 +28 душно 1014.6 1010.2
09 10.09 СЗ 1 28 км н/о +28.0 +16.3 49 +31 +31 душно 1014.1 1009.8
10 10.09 нст 1 30 км н/о +29.9 +13.4 36 +31 +31 жарко 1013.7 1009.4
11 10.09 С 2 40 км н/о +30.8 +11.3 30 +31 +31 жарко 1013.4 1009.1
12 10.09 СЗ 3 45 км н/о +32.5 +14.5 34 +34 +34 очень
жарко
1012.8 1008.5
13 10.09 С 5 45 км н/о +30.7 +17.2 44 +34 +34 очень
душно
1012.7 1008.4
14 10.09 С 5 45 км н/о +27.9 +16.4 50 +31 +31 душно 1012.8 1008.5
15 10.09 СЗ 3 45 км н/о +28.2 +15.2 45 +31 +31 душно 1012.6 1008.3
16 10.09 СЗ 3 45 км н/о +26.2 +16.2 54 +30 +30 душно 1012.7 1008.3
17 10.09 С 2 28 км н/о +24.9 +16.1 58 +28 +28 жарко 1012.9 1008.6
18 10.09 ЮЗ 1 30 км н/о +22.8 +16.5 68 +27 +27 душно 1013.6 1009.2 +20.3 +32.5
19 10.09 ЮВ 2 12 км н/о +21.8 +16.7 73 +26 +26 душно 1014.0 1009.6
20 10.09 В 1 22 км н/о +22.3 +17.2 73 +27 +27 душно 1014.0 1009.6
21 10.09 Ю 2 35 км н/о +21.8 +16.0 70 +26 +26 душно 1014.2 1009.8
22 10.09 В 2 27 км н/о +20.5 +16.5 78 +24 +24 комфорт 1014.4 1010.0
23 10.09 Ю 1 24 км н/о +20.2 +17.8 86 +25 +25 комфорт 1014.5 1010.1
00 11.09 штиль 0 28 км н/о +20.9 +18.0 83 +25 +25 комфорт 1014.7 1010.3
01 11.09 ЮВ 1 30 км н/о +21.1 +17.8 81 +25 +25 комфорт 1015.0 1010.6
02 11.09 С 2 20 км н/о +20.7 +18.1 85 +25 +25 комфорт 1015.3 1010.8
03 11.09 С 6 16 км н/о +20.2 +18.0 87 +23 +23 комфорт 1015.4 1010.9
04 11.09 СЗ 2 7000 м н/о +19.7 +18.4 92 +23 +23 комфорт 1015.3 1010.8
05 11.09 В 1 8000 м н/о +19.6 +18.2 92 +23 +23 комфорт 1015.7 1011.2
06 11.09 С 1 13 км н/о +20.8 +18.7 88 +26 +26 душно 1015.9 1011.4 +19.1 +23.8
07 11.09 В 2 11 км н/о +21.4 +19.4 88 +26 +26 душно 1016.6 1012.1
08 11.09 ЮЗ 1 19 км н/о +22.5 +18.6 79 +28 +28 душно 1017.1 1012.7
09 11.09 ЮЗ 3 27 км н/о +25.0 +18.7 68 +30 +30 душно 1017.2 1012.9
10 11.09 С 2 22 км н/о +24.8 +18.1 66 +29 +29 душно 1017.7 1013.3
11 11.09 С 2 26 км н/о +26.1 +18.2 62 +31 +31 очень
душно
1018.0 1013.7
12 11.09 СЗ 2 30 км н/о +27.1 +17.1 54 +31 +31 душно 1017.6 1013.2
13 11.09 С 2 30 км н/о +27.2 +17.6 56 +31 +31 душно 1017.5 1013.2
14 11.09 СЗ 2 35 км н/о +26.9 +18.0 58 +31 +31 душно 1017.5 1013.2
15 11.09 СЗ 3 30 км н/о +27.0 +18.7 60 +32 +32 очень
душно
1017.5 1013.1
16 11.09 СЗ 2 35 км н/о +25.6 +18.6 65 +30 +30 душно 1018.2 1013.8
17 11.09 С 2 25 км н/о +24.6 +20.7 79 +31 +31 очень
душно
1018.4 1014.0
18 11.09 СЗ 1 15 км н/о +23.6 +20.7 84 +29 +29 душно 1019.2 1014.8 +20.5 +28.1
20 11.09 ЮВ 1 12 км н/о +22.5 +20.2 87 +29 +29 очень
душно
1020.0 1015.5
21 11.09 Ю 1 13 км н/о +20.8 +18.5 87 +26 +26 душно 1020.2 1015.8
22 11.09 Ю 2 14 км н/о +20.9 +18.6 87 +26 +26 душно 1020.4 1016.0
00 12.09 Ю 1 13 км н/о +20.1 +18.2 89 +24 +24 комфорт 1020.3 1015.8
01 12.09 СВ 1 7000 м н/о +19.0 +17.7 92 +22 +22 комфорт 1020.3 1015.8
02 12.09 штиль 0 6000 м н/о +18.0 +16.9 93 +18 +18 1020.4 1015.9
03 12.09 В 1 8000 м н/о +17.7 +16.6 93 +19 +19 1020.3 1015.8
04 12.09 ЮВ 1 8000 м н/о +17.1 +16.0 93 +18 +18 1020.5 1016.0
05 12.09 В 1 9000 м н/о +17.6 +16.2 91 +19 +19 1021.1 1016.6
06 12.09 Ю 1 14 км н/о +19.8 +17.3 86 +24 +24 комфорт 1021.5 1017.0 +16.8 +23.8
07 12.09 Ю 1 18 км н/о +22.7 +17.9 74 +28 +28 душно 1022.1 1017.7
08 12.09 нст 1 28 км н/о +24.9 +17.3 63 +29 +29 душно 1022.2 1017.8
09 12.09 С 2 30 км н/о +26.6 +17.8 58 +31 +31 душно 1022.5 1018.1
10 12.09 СЗ 4 35 км н/о +28.0 +13.7 41 +30 +30 жарко 1022.3 1017.9
11 12.09 СЗ 3 35 км н/о +28.8 +13.8 40 +31 +31 жарко 1022.1 1017.7
12 12.09 СЗ 5 35 км н/о +29.0 +13.8 39 +31 +31 жарко 1021.7 1017.3
13 12.09 СЗ 4 40 км н/о +29.0 +15.3 43 +32 +32 душно 1021.2 1016.8
14 12.09 СЗ 2 35 км н/о +27.4 +17.6 55 +32 +32 очень
душно
1021.0 1016.6
15 12.09 СЗ 4 40 км н/о +27.3 +16.0 50 +31 +31 душно 1020.8 1016.4
16 12.09 С 2 35 км н/о +26.4 +16.8 56 +30 +30 душно 1020.9 1016.6
17 12.09 СЗ 4 28 км н/о +25.6 +17.7 62 +30 +30 душно 1021.1 1016.7
18 12.09 С 3 40 км н/о +25.4 +10.6 39 +26 +26 жарко 1021.7 1017.3 +19.6 +30.1
19 12.09 З 1 30 км н/о +22.4 +12.8 55 +25 +25 комфорт 1022.3 1017.8
20 12.09 СЗ 3 35 км н/о +22.8 +10.5 46 +25 +25 комфорт 1022.6 1018.2
21 12.09 нст 1 35 км н/о +22.4 +9.6 44 +24 +24 комфорт 1022.9 1018.5
22 12.09 С 3 35 км н/о +19.9 +11.0 56 +22 +22 комфорт 1022.6 1018.1
23 12.09 СЗ 1 35 км н/о +19.3 +11.2 59 +21 +21 комфорт 1022.7 1018.2
00 13.09 С 2 30 км н/о +19.0 +11.8 63 +20 +20 1022.7 1018.2
01 13.09 Ю 2 30 км н/о +17.9 +11.6 67 +18 +18 1022.7 1018.2
02 13.09 С 4 35 км н/о +20.9 +12.4 58 +23 +23 комфорт 1022.8 1018.3
03 13.09 СЗ 2 35 км н/о +20.0 +13.0 64 +22 +22 комфорт 1023.0 1018.5
04 13.09 ЮВ 2 24 км н/о +17.5 +13.6 78 +18 +18 1023.3 1018.8
05 13.09 Ю 1 22 км н/о +17.3 +13.5 78 +18 +18 1023.9 1019.4
06 13.09 Ю 1 20 км н/о +20.0 +13.0 64 +23 +23 комфорт 1024.3 1019.8 +16.5 +25.2
07 13.09 С 2 30 км н/о +24.3 +14.3 54 +27 +27 жарко 1024.4 1019.9
08 13.09 СЗ 5 40 км н/о +27.4 +11.0 36 +28 +28 жарко 1024.4 1020.0
09 13.09 СЗ 4 40 км н/о +28.6 +10.4 32 +29 +29 жарко 1024.0 1019.6
10 13.09 СЗ 3 45 км н/о +29.6 +9.1 28 +29 +29 жарко 1023.1 1018.8
11 13.09 С 3 45 км н/о +31.9 +9.1 24 +31 +31 жарко 1022.5 1018.2
12 13.09 С 5 40 км н/о +32.0 +9.8 25 +31 +31 жарко 1021.7 1017.4
13 13.09 СЗ 7 45 км н/о +31.7 +9.1 25 +31 +31 жарко 1021.2 1016.9
14 13.09 СЗ 7 35 км н/о +30.4 +9.0 26 +30 +30 жарко 1020.9 1016.6
15 13.09 СЗ 6 45 км н/о +29.6 +8.8 27 +29 +29 жарко 1020.9 1016.5
16 13.09 СЗ 6 35 км н/о +26.6 +13.2 44 +29 +29 жарко 1021.4 1017.0
17 13.09 СЗ 5 30 км н/о +26.8 +11.3 38 +28 +28 жарко 1021.8 1017.5
18 13.09 С 3 30 км н/о +23.7 +9.2 40 +25 +25 комфорт 1022.7 1018.3 +19.8 +32.9
19 13.09 нст 2 30 км н/о +23.4 +8.9 40 +25 +25 комфорт 1023.1 1018.7
20 13.09 СЗ 2 45 км н/о +21.6 +9.5 46 +23 +23 комфорт 1023.4 1019.0
21 13.09 ЮВ 1 25 км н/о +17.5 +10.8 65 +19 +19 1023.7 1019.2
22 13.09 Ю 2 29 км н/о +16.6 +10.6 68 +17 +17 1023.5 1019.0
23 13.09 ЮВ 2 35 км н/о +15.8 +11.1 74 +16 +16 1023.5 1018.9
00 14.09 Ю 2 28 км н/о +14.6 +10.7 77 +14 +14 1023.3 1018.7
01 14.09 ЮВ 1 25 км н/о +14.7 +10.6 76 +15 +15 1023.1 1018.5
02 14.09 ЮВ 2 29 км н/о +13.5 +10.6 83 +13 +13 1023.1 1018.5
03 14.09 ЮЗ 1 27 км н/о +13.9 +10.5 80 +14 +14 1023.3 1018.7
04 14.09 ЮВ 1 23 км н/о +13.3 +10.5 83 +13 +13 1023.2 1018.6
05 14.09 Ю 1 30 км н/о +13.4 +10.1 80 +14 +14 1023.5 1018.9
06 14.09 штиль 0 22 км н/о +18.2 +12.0 67 +18 +18 1023.9 1019.4 +11.8 +24.6
07 14.09 штиль 0 27 км н/о +23.6 +13.6 53 +26 +26 жарко 1023.8 1019.3
08 14.09 С 2 35 км н/о +24.8 +10.2 40 +26 +26 жарко 1023.9 1019.5
09 14.09 СЗ 2 40 км н/о +28.0 +7.0 26 +27 +27 жарко 1023.6 1019.2
10 14.09 СЗ 2 40 км н/о +30.5 +7.5 24 +29 +29 жарко 1023.1 1018.7
11 14.09 З 2 45 км н/о +31.2 +8.6 25 +30 +30 жарко 1022.3 1018.0
12 14.09 СЗ 4 40 км н/о +31.9 +7.8 22 +31 +31 жарко 1021.4 1017.1
13 14.09 СЗ 4 45 км н/о +32.0 +9.4 25 +31 +31 жарко 1020.5 1016.3
14 14.09 СЗ 5 50 км н/о +30.5 +11.9 32 +31 +31 жарко 1020.3 1016.0
15 14.09 С 5 45 км н/о +27.8 +12.6 39 +29 +29 жарко 1020.6 1016.2
16 14.09 С 4 40 км н/о +26.1 +15.4 52 +29 +29 жарко 1020.7 1016.4
17 14.09 З 2 30 км н/о +24.5 +16.8 62 +28 +28 душно 1020.9 1016.5
18 14.09 ЮВ 2 11 км н/о +21.7 +15.7 69 +25 +25 комфорт 1021.5 1017.0 +18.1 +33.0
19 14.09 ЮВ 2 11 км н/о +20.4 +16.3 77 +24 +24 комфорт 1021.6 1017.1
20 14.09 Ю 1 15 км н/о +19.6 +16.7 83 +23 +23 комфорт 1021.6 1017.1
21 14.09 СВ 1 15 км н/о +18.8 +16.3 85 +21 +21 комфорт 1022.0 1017.5
22 14.09 нст 1 12 км н/о +16.8 +14.7 87 +18 +18 1022.1 1017.6
23 14.09 штиль 0 9000 м н/о +16.3 +15.0 92 +16 +16 1022.2 1017.7
00 15.09 Ю 2 11 км н/о +16.0 +14.0 88 +16 +16 1021.9 1017.3
01 15.09 штиль 0 9000 м н/о +14.7 +13.2 91 +14 +14 1021.7 1017.2
02 15.09 нст 1 19 км н/о +14.9 +12.4 85 +15 +15 1022.0 1017.4
03 15.09 ЮВ 1 9000 м н/о +14.3 +12.9 91 +15 +15 1022.3 1017.7
04 15.09 Ю 2 15 км н/о +14.7 +12.9 89 +14 +14 1022.5 1017.9
05 15.09 ЮВ 1 11 км н/о +14.4 +12.6 89 +15 +15 1022.3 1017.8
06 15.09 штиль 0 17 км н/о +19.7 +15.3 76 +22 +22 комфорт 1022.4 1017.9 +13.3 +21.8
07 15.09 С 1 28 км н/о +23.1 +14.5 58 +27 +27 душно 1023.0 1018.6
08 15.09 нст 1 35 км н/о +26.4 +13.2 44 +28 +28 жарко 1022.8 1018.4
09 15.09 СЗ 2 40 км н/о +31.1 +12.6 32 +32 +32 жарко 1022.7 1018.3
10 15.09 СЗ 2 45 км н/о +30.9 +10.1 28 +31 +31 жарко 1022.2 1017.9
11 15.09 нст 1 40 км н/о +32.6 +10.1 25 +32 +32 жарко 1021.5 1017.3
12 15.09 СЗ 5 45 км н/о +33.0 +12.5 29 +33 +33 жарко 1020.9 1016.6
13 15.09 СЗ 6 45 км н/о +31.4 +10.5 28 +31 +31 жарко 1020.3 1016.0
14 15.09 СЗ 5 45 км н/о +30.3 +11.8 32 +31 +31 жарко 1019.9 1015.6
15 15.09 СЗ 4 45 км н/о +28.8 +12.6 37 +30 +30 жарко 1020.0 1015.7
16 15.09 С 3 35 км н/о +26.8 +15.7 51 +30 +30 душно 1020.3 1015.9
17 15.09 СЗ 3 30 км н/о +23.8 +17.6 68 +28 +28 душно 1020.4 1016.0
18 15.09 СЗ 2 24 км н/о +22.3 +17.9 76 +27 +27 душно 1020.7 1016.2 +19.3 +33.4
19 15.09 Ю 2 21 км н/о +21.5 +17.4 77 +26 +26 душно 1020.8 1016.4
20 15.09 ЮВ 1 15 км н/о +19.6 +17.0 85 +23 +23 комфорт 1021.0 1016.5
21 15.09 Ю 2 16 км н/о +18.2 +15.6 85 +19 +19 1020.8 1016.3
22 15.09 Ю 2 19 км н/о +17.6 +14.6 83 +18 +18 1020.7 1016.1
23 15.09 Ю 1 20 км н/о +17.5 +14.0 80 +19 +19 1020.7 1016.1
00 16.09 Ю 1 18 км н/о +17.0 +14.6 86 +18 +18 1020.5 1016.0
01 16.09 ЮВ 2 18 км н/о +16.9 +14.3 85 +17 +17 1020.2 1015.7
02 16.09 ЮВ 1 19 км н/о +16.5 +13.9 85 +17 +17 1020.0 1015.4
03 16.09 Ю 1 21 км н/о +16.0 +13.3 84 +17 +17 1019.7 1015.1
04 16.09 ЮВ 2 16 км н/о +14.7 +13.0 90 +14 +14 1019.5 1015.0
05 16.09 ЮВ 1 17 км н/о +15.2 +13.1 87 +16 +16 1019.6 1015.0
06 16.09 Ю 2 18 км н/о +18.6 +14.6 78 +20 +20 1019.3 1014.8 +14.4 +22.9
07 16.09 Ю 1 25 км н/о +22.8 +14.8 61 +27 +27 душно 1019.3 1014.9
08 16.09 ЮВ 1 30 км н/о +25.5 +16.8 59 +29 +29 душно 1019.4 1015.0
09 16.09 СЗ 1 30 км н/о +26.3 +17.9 60 +31 +31 душно 1019.2 1014.8
10 16.09 СЗ 2 35 км н/о +28.6 +19.1 56 +34 +34 очень
душно
1018.7 1014.3
11 16.09 З 3 40 км н/о +29.4 +18.8 53 +35 +35 очень
душно
1018.1 1013.8
12 16.09 З 3 45 км н/о +29.4 +16.1 45 +33 +33 душно 1017.6 1013.2
13 16.09 З 3 40 км н/о +28.4 +14.9 44 +31 +31 душно 1016.9 1012.5
14 16.09 СЗ 3 40 км н/о +28.6 +15.2 44 +31 +31 жарко 1016.6 1012.3
15 16.09 СЗ 3 35 км н/о +26.6 +16.9 55 +30 +30 душно 1016.5 1012.2
17 16.09 СЗ 2 30 км н/о +23.0 +18.2 74 +29 +29 очень
душно
1016.5 1012.1
18 16.09 З 1 16 км н/о +21.1 +18.4 85 +25 +25 комфорт 1016.8 1012.3 +18.5 +30.5
19 16.09 В 1 9000 м н/о +20.2 +18.4 89 +25 +25 комфорт 1017.1 1012.6
20 16.09 ЮВ 1 9000 м н/о +20.0 +18.2 89 +24 +24 комфорт 1017.3 1012.8
21 16.09 Ю 2 7000 м н/о +18.0 +16.7 92 +19 +19 1017.3 1012.8

 

Местоположение метеостанции Тирана (Албания): широта 41.33 долгота 19.78 высота над уровнем моря 89 м.

В архиве по умолчанию представлена погода в Тиране за последнюю неделю. Архивные данные за месяц целиком и за предыдущие месяцы, начиная с января 2011 года, Вы можете получить, выбрав интересующий диапазон дат из раскрывающегося списка и нажав кнопку "Ввод!".


*Определитесь, кто Вы:
робот инопланетянин человек

Внимание! Время в таблицах - всемирное. Для получения местного времени необходимо прибавить поправку, которая равна 1 ч.

Смотрите также архив погоды в соседних городах и на ближайших метеорологических станциях:

Погода в Дурресе (Албания) (28 км)
Погода в Эльбасане (Албания) (34 км)
Погода в Тиране Лапрака (Албания) (59 км)
Погода в Кучове (Албания) (60 км)
Погода в Пешкопии (Албания) (67 км)
Погода на Лазарополе (Македония) (80 км)
Погода в Шкодре (Албания) (88 км)
Погода в Охрид аэропорту (Македония) (88 км)
Погода в Охриде (Македония) (91 км)
Погода во Влёре (Албания) (99 км)

Пояснения к столбцам:

Ветер - указаны скорость ветра в м/с - средняя за 10 мин, порывы в срок и между сроками (в фигурных скобках) и направление, откуда дует ветер: С - северный, СВ - северо-восточный, В - восточный, ЮВ - юго-восточный, Ю - южный, ЮЗ - юго-западный, З - западный, СЗ - северо-западный.
Видимость - горизонтальная дальность видимости в метрах или километрах. При видимости от 1 до 10 км при отсутствии осадков обычно наблюдается дымка, при ухудшении видимости до 1 км и менее - туман. В сухую погоду видимость может ухудшаться дымом, пылью или мглою.
Явления - указаны атмосферные явления, наблюдавшиеся в срок или в последний час перед сроком; фигурными скобками обозначены явления, наблюдавшиеся между сроками (за 1-3 часа до срока); квадратными скобками обозначены град или гололедные отложения с указанием их диаметра в мм.
Облачность - указаны через наклонную черту общая и нижняя облачность в баллах и высота нижней границы облаков в метрах; квадратными скобками обозначены формы облаков: Ci - перистые, Cs - перисто-слоистые, Cc - перисто-кучевые, Ac - высококучевые, As - высокослоистые, Sc - слоисто-кучевые, Ns - слоисто-дождевые, Cu - кучевые, Cb - кучево-дождевые. Подробнее классификацию облаков см. в Атласе облаков (PDF).
T - Температура воздуха - температура, измеренная на высоте 2 м над землей.
Td - Температура точки росы - температура, при понижении до которой содержащийся в воздухе водяной пар достигнет насыщения.
f - Относительная влажность воздуха - влажноcть воздуха, измеренная на высоте 2 м над землей.
Te - Эффективная температура - температура, которую ощущает одетый по сезону человек в тени. Характеристика душности погоды. При расчете учитывается влияние влажности воздуха и скорости ветра на теплоощущения человека.
Tes - Эффективная температура на солнце - температура, которую ощущает человек, с поправкой на солнечный нагрев. Характеристика знойности погоды. Зависит от высоты солнца над горизонтом, облачности и скорости ветра. Ночью, в пасмурную погоду, а также при ветре 12 м/с и более поправка равна нулю.
P - Атмосферное давление - приведенное к уровню моря атмосферное давление.
Po - Атмосферное давление - измеренное на уровне метеостанции атмосферное давление.
Tmin - Минимальная температура - минимум температуры воздуха на высоте 2 м над землей.
Tmax - Максимальная температура - максимум температуры воздуха на высоте 2 м над землей.
R - Количество осадков - Количество выпавших осадков за период времени, мм. При наведении курсора мыши на число - период времени, за который выпало указанное количество осадков.
R24 - Количество осадков - Количество выпавших осадков за 24 часа, мм.
S - Снежный покров - Высота снежного покрова, см. При наведении курсора мыши на число - состояние снежного покрова и степень покрытия местности в баллах.